Weather History for KAUN - April, 2014

Change the Weather History Date:

Monday, April 21, 2014

  Actual Average Record
Temperature  
Mean Temperature 64 °F -  
Max Temperature 71 °F 68 °F 87 °F (1950)
Min Temperature 57 °F 45 °F 31 °F (1971)
Degree Days  
Heating Degree Days 1    
Growing Degree Days 14 (Base 50)    
Moisture  
Dew Point 41 °F    
Average Humidity 44    
Maximum Humidity 59    
Minimum Humidity 23    
Precipitation  
Precipitation 0.00 in - - ()
Sea Level Pressure  
Sea Level Pressure 30.01 in    
Wind  
Wind Speed 9 mph (SE)    
Max Wind Speed 15 mph    
Max Gust Speed 18 mph    
Visibility 10 miles    
Events      
Averages and records for this station are not official NWS values.
T = Trace of Precipitation, MM = Missing Value Source: NWS Daily Summary

Daily Weather History Graph

Daily Weather History Graph

Search for Another Location

Airport or City:

Trip Planner

Search our weather history database for the weather conditions in past years. The results will help you decide how hot, cold, wet, or windy it might be!

Date:

Astronomy

Apr. 21, 2014 Rise Set
Actual Time 6:19 AM PDT 7:47 PM PDT
Civil Twilight 5:51 AM PDT 8:15 PM PDT
Nautical Twilight 5:17 AM PDT 8:49 PM PDT
Astronomical Twilight 4:42 AM PDT 9:24 PM PDT
Moon 1:20 AM PDT (4/21) 11:52 AM PDT (4/21)
Length of Visible Light 14h 24m
Length of Day
13h 28m
Waning Gibbous, 56% of the Moon is Illuminated
Apr 21
Waning Gibbous
Apr 22
Last Quarter
Apr 28
New
May 6
First Quarter
May 14
Full

Hourly Weather History & Observations

Time (PDT) Temp. Dew Point Humidity Pressure Visibility Wind Dir Wind Speed Gust Speed Precip Events Conditions
12:15 AM 60.8 °F 42.8 °F 52% 30.07 in 10.0 mi East 9.2 mph - N/A   Clear
12:35 AM 60.8 °F 42.8 °F 52% 30.07 in 10.0 mi East 9.2 mph - N/A   Clear
12:55 AM 60.8 °F 42.8 °F 52% 30.07 in 10.0 mi East 9.2 mph - N/A   Clear
1:15 AM 59.0 °F 42.8 °F 55% 30.06 in 10.0 mi East 9.2 mph - N/A   Clear
1:35 AM 59.0 °F 42.8 °F 55% 30.06 in 10.0 mi East 9.2 mph - N/A   Clear
1:55 AM 59.0 °F 42.8 °F 55% 30.06 in 10.0 mi East 6.9 mph - N/A   Clear
2:15 AM 57.2 °F 42.8 °F 59% 30.06 in 10.0 mi East 5.8 mph - N/A   Clear
2:35 AM 59.0 °F 42.8 °F 55% 30.05 in 10.0 mi East 9.2 mph - N/A   Clear
2:55 AM 57.2 °F 42.8 °F 59% 30.05 in 10.0 mi East 9.2 mph - N/A   Clear
3:15 AM 57.2 °F 42.8 °F 59% 30.05 in 10.0 mi East 9.2 mph - N/A   Clear
3:35 AM 57.2 °F 42.8 °F 59% 30.05 in 10.0 mi East 9.2 mph - N/A   Clear
3:55 AM 57.2 °F 42.8 °F 59% 30.04 in 10.0 mi East 11.5 mph - N/A   Clear
4:15 AM 57.2 °F 42.8 °F 59% 30.04 in 10.0 mi East 12.7 mph - N/A   Clear
4:35 AM 57.2 °F 42.8 °F 59% 30.04 in 10.0 mi East 12.7 mph - N/A   Clear
4:55 AM 57.2 °F 42.8 °F 59% 30.03 in 10.0 mi East 12.7 mph - N/A   Clear
5:15 AM 57.2 °F 42.8 °F 59% 30.03 in 10.0 mi East 13.8 mph - N/A   Clear
5:35 AM 57.2 °F 41.0 °F 55% 30.02 in 10.0 mi East 13.8 mph - N/A   Clear
5:55 AM 57.2 °F 41.0 °F 55% 30.02 in 10.0 mi East 15.0 mph - N/A   Clear
6:15 AM 59.0 °F 42.8 °F 55% 30.02 in 10.0 mi East 12.7 mph - N/A   Clear
6:35 AM 59.0 °F 42.8 °F 55% 30.02 in 10.0 mi East 12.7 mph - N/A   Clear
6:55 AM 59.0 °F 42.8 °F 55% 30.02 in 10.0 mi East 12.7 mph - N/A   Clear
7:15 AM 59.0 °F 42.8 °F 55% 30.03 in 10.0 mi East 11.5 mph - N/A   Clear
7:35 AM 60.8 °F 42.8 °F 52% 30.03 in 10.0 mi ESE 11.5 mph - N/A   Clear
7:55 AM 60.8 °F 42.8 °F 52% 30.04 in 10.0 mi South 5.8 mph - N/A   Clear
8:15 AM 57.2 °F 42.8 °F 59% 30.04 in 10.0 mi SE 6.9 mph - N/A   Clear
8:35 AM 60.8 °F 42.8 °F 52% 30.05 in 10.0 mi SE 6.9 mph - N/A   Clear
8:55 AM 64.4 °F 39.2 °F 40% 30.05 in 10.0 mi South 6.9 mph - N/A   Clear
9:15 AM 64.4 °F 39.2 °F 40% 30.05 in 10.0 mi SSE 4.6 mph - N/A   Clear
9:35 AM 64.4 °F 41.0 °F 42% 30.04 in 10.0 mi SSE 6.9 mph - N/A   Clear
9:55 AM 66.2 °F 39.2 °F 37% 30.04 in 10.0 mi SE 6.9 mph - N/A   Clear
10:15 AM 68.0 °F 42.8 °F 40% 30.04 in 10.0 mi SE 9.2 mph - N/A   Clear
10:35 AM 69.8 °F 42.8 °F 38% 30.04 in 10.0 mi SE 9.2 mph - N/A   Clear
10:55 AM 69.8 °F 44.6 °F 40% 30.04 in 10.0 mi SSE 8.1 mph - N/A   Clear
11:15 AM 69.8 °F 44.6 °F 40% 30.04 in 10.0 mi SSE 9.2 mph - N/A   Clear
11:35 AM 71.6 °F 46.4 °F 41% 30.05 in 10.0 mi SSW 8.1 mph - N/A   Clear
11:55 AM 69.8 °F 46.4 °F 43% 30.05 in 10.0 mi SW 6.9 mph - N/A   Clear
12:15 PM 68.0 °F 44.6 °F 43% 30.05 in 10.0 mi SSW 5.8 mph - N/A   Partly Cloudy
12:35 PM 69.8 °F 46.4 °F 43% 30.06 in 10.0 mi SW 8.1 mph - N/A   Partly Cloudy
12:55 PM 68.0 °F 42.8 °F 40% 30.07 in 10.0 mi SW 10.4 mph - N/A   Partly Cloudy
1:15 PM 66.2 °F 39.2 °F 37% 30.06 in 10.0 mi SSW 6.9 mph - N/A   Partly Cloudy
1:35 PM 68.0 °F 41.0 °F 37% 30.06 in 10.0 mi Calm Calm - N/A   Partly Cloudy
1:55 PM 68.0 °F 41.0 °F 37% 30.04 in 10.0 mi SE 6.9 mph - N/A   Partly Cloudy
2:15 PM 66.2 °F 39.2 °F 37% 30.04 in 10.0 mi SE 6.9 mph - N/A   Partly Cloudy
2:35 PM 66.2 °F 42.8 °F 43% 30.02 in 10.0 mi ESE 11.5 mph - N/A   Clear
2:55 PM 68.0 °F 44.6 °F 43% 30.00 in 10.0 mi ESE 13.8 mph 18.4 mph N/A   Clear
3:15 PM 69.8 °F 44.6 °F 40% 30.00 in 10.0 mi SE 9.2 mph - N/A   Partly Cloudy
3:55 PM 69.8 °F 42.8 °F 38% 29.99 in 10.0 mi SSE 10.4 mph - N/A   Scattered Clouds
4:15 PM 69.8 °F 42.8 °F 38% 29.98 in 10.0 mi SSE 9.2 mph - N/A   Mostly Cloudy
4:35 PM 69.8 °F 42.8 °F 38% 29.98 in 10.0 mi SSW 6.9 mph - N/A   Mostly Cloudy
4:55 PM 69.8 °F 44.6 °F 40% 29.98 in 10.0 mi SW 5.8 mph - N/A   Scattered Clouds
5:15 PM 69.8 °F 44.6 °F 40% 29.97 in 10.0 mi SW 5.8 mph - N/A   Scattered Clouds
5:55 PM 68.0 °F 42.8 °F 40% 29.96 in 10.0 mi SSW 8.1 mph - N/A   Scattered Clouds
6:15 PM 66.2 °F 42.8 °F 43% 29.95 in 10.0 mi SW 8.1 mph - N/A   Mostly Cloudy
6:35 PM 66.2 °F 42.8 °F 43% 29.94 in 10.0 mi WSW 6.9 mph - N/A   Scattered Clouds
6:55 PM 66.2 °F 41.0 °F 40% 29.94 in 10.0 mi WSW 5.8 mph - N/A   Mostly Cloudy
7:15 PM 66.2 °F 33.8 °F 30% 29.94 in 10.0 mi SW 8.1 mph - N/A   Mostly Cloudy
7:35 PM 66.2 °F 26.6 °F 23% 29.94 in 10.0 mi SSW 5.8 mph - N/A   Mostly Cloudy
7:55 PM 66.2 °F 28.4 °F 24% 29.94 in 10.0 mi South 3.5 mph - N/A   Mostly Cloudy
8:15 PM 64.4 °F 30.2 °F 28% 29.94 in 10.0 mi Calm Calm - N/A   Mostly Cloudy
8:35 PM 64.4 °F 32.0 °F 30% 29.95 in 10.0 mi Calm Calm - N/A   Mostly Cloudy
8:55 PM 64.4 °F 32.0 °F 30% 29.94 in 10.0 mi SSE 3.5 mph - N/A   Overcast
9:15 PM 64.4 °F 32.0 °F 30% 29.94 in 10.0 mi SSE 4.6 mph - N/A   Mostly Cloudy
9:35 PM 62.6 °F 33.8 °F 34% 29.94 in 10.0 mi SSE 4.6 mph - N/A   Scattered Clouds
9:55 PM 62.6 °F 35.6 °F 37% 29.93 in 10.0 mi SE 9.2 mph - N/A   Partly Cloudy
10:15 PM 62.6 °F 35.6 °F 37% 29.94 in 10.0 mi South 9.2 mph - N/A   Partly Cloudy
10:35 PM 60.8 °F 33.8 °F 36% 29.94 in 10.0 mi South 6.9 mph - N/A   Clear
10:55 PM 60.8 °F 33.8 °F 36% 29.94 in 10.0 mi SSE 9.2 mph - N/A   Clear
11:15 PM 59.0 °F 35.6 °F 42% 29.92 in 10.0 mi ESE 10.4 mph - N/A   Clear
11:35 PM 57.2 °F 32.0 °F 38% 29.90 in 10.0 mi ESE 11.5 mph - N/A   Clear
11:55 PM 57.2 °F 32.0 °F 38% 29.90 in 10.0 mi SE 9.2 mph - N/A   Partly Cloudy